N0BVW-10 Weather Reports


Display with metric or nautical units.
time (UTC)temp
F
wind
direction
speed
MPH
gust
MPH
rain 1hr
in
rain 24hr
in
rain mn
in
humidity
%
barometer
mb
20221205215541 44 19 12.0 14.0 0.00 0.00 0.00 70 1003.3
20221205215052 45 11 11.0 14.0 0.00 0.00 0.00 70 1003.3
20221205214532 45 5 12.0 15.0 0.00 0.00 0.00 70 1003.3
20221205214043 45 15 12.0 16.0 0.00 0.00 0.00 70 1003.2
20221205213524 45 5 13.0 16.0 0.00 0.00 0.00 71 1003.1
20221205213034 46 10 13.0 16.0 0.00 0.00 0.00 71 1003.1
20221205212544 46 22 13.0 16.0 0.00 0.00 0.00 71 1003.0
20221205212034 46 9 13.0 16.0 0.00 0.00 0.00 71 1002.8
20221205211535 45 5 14.0 16.0 0.00 0.00 0.00 71 1002.8
20221205211024 46 19 14.0 16.0 0.00 0.00 0.00 71 1002.8
20221205210534 46 13 13.0 17.0 0.00 0.00 0.00 71 1002.8
20221205210033 46 22 13.0 19.0 0.00 0.00 0.00 70 1002.8
20221205205541 47 12 16.0 19.0 0.00 0.00 0.00 71 1002.7
20221205205031 47 9 15.0 20.0 0.00 0.00 0.00 71 1002.8
20221205204540 46 360 15.0 20.0 0.00 0.00 0.00 70 1003.0
20221205204039 46 17 13.0 19.0 0.00 0.00 0.00 70 1002.9
20221205203530 45 5 15.0 20.0 0.00 0.00 0.00 71 1003.1
20221205203035 45 360 16.0 23.0 0.00 0.00 0.00 71 1003.1
20221205202536 46 355 17.0 23.0 0.00 0.00 0.00 71 1003.3
20221205202043 46 5 19.0 21.0 0.00 0.00 0.00 70 1003.2
20221205201532 46 349 17.0 21.0 0.00 0.00 0.00 70 1003.3
20221205201033 46 355 18.0 26.0 0.00 0.00 0.00 70 1003.4
20221205200543 46 12 19.0 26.0 0.00 0.00 0.00 70 1003.3
20221205200033 46 333 16.0 23.0 0.00 0.00 0.00 71 1003.4
20221205195543 46 338 18.0 23.0 0.00 0.00 0.00 70 1003.5
20221205195044 46 5 18.0 21.0 0.00 0.00 0.00 71 1003.6
20221205194533 46 342 18.0 21.0 0.00 0.00 0.00 71 1003.6
20221205194041 47 340 17.0 21.0 0.00 0.00 0.00 71 1003.6
20221205193551 47 350 16.0 22.0 0.00 0.00 0.00 71 1003.6
20221205193032 47 348 18.0 23.0 0.00 0.00 0.00 71 1003.8
20221205192543 47 338 16.0 23.0 0.00 0.00 0.00 71 1003.9
20221205192052 47 342 17.0 21.0 0.00 0.00 0.00 71 1004.0
20221205191532 46 355 17.0 20.0 0.00 0.00 0.00 70 1003.9
20221205191041 46 342 17.0 19.0 0.00 0.00 0.00 70 1003.8
20221205190551 46 336 14.0 19.0 0.00 0.00 0.00 70 1003.7
20221205190032 46 360 15.0 21.0 0.00 0.00 0.00 70 1003.8
20221205185539 46 350 16.0 21.0 0.00 0.00 0.00 71 1003.7
20221205185048 46 336 14.0 19.0 0.00 0.00 0.00 71 1003.8
20221205184527 45 355 14.0 17.0 0.00 0.00 0.00 71 1003.8
20221205184038 45 340 13.0 17.0 0.00 0.00 0.00 70 1003.9
20221205183529 44 325 13.0 17.0 0.00 0.00 0.00 70 1003.9
20221205183028 44 346 13.0 17.0 0.00 0.00 0.00 70 1003.8
20221205182536 43 5 14.0 17.0 0.00 0.00 0.00 70 1003.8
20221205182044 43 13 13.0 16.0 0.00 0.00 0.00 70 1003.9
20221205181525 43 342 13.0 16.0 0.00 0.00 0.00 70 1003.9
20221205181036 42 18 8.0 14.0 0.00 0.00 0.00 45 1003.8
20221205180526 42 336 11.0 14.0 0.00 0.00 0.00 44 1003.6
20221205180037 42 14 9.0 15.0 0.00 0.00 0.00 45 1003.7
20221205175537 41 27 10.0 15.0 0.00 0.00 0.00 45 1003.6
20221205175026 42 5 10.0 15.0 0.00 0.00 0.00 44 1003.8
20221205174536 42 24 10.0 15.0 0.00 0.00 0.00 45 1003.8
20221205174036 41 15 10.0 16.0 0.00 0.00 0.00 45 1003.8
20221205173525 41 350 12.0 16.0 0.00 0.00 0.00 45 1003.8
20221205173036 41 30 12.0 16.0 0.00 0.00 0.00 45 1003.8
20221205172547 41 26 12.0 17.0 0.00 0.00 0.00 45 1003.7
20221205172027 41 360 11.0 17.0 0.00 0.00 0.00 45 1003.7
20221205171533 41 20 11.0 17.0 0.00 0.00 0.00 46 1003.9
20221205171042 40 49 13.0 18.0 0.00 0.00 0.00 46 1004.1
20221205170543 41 32 10.0 18.0 0.00 0.00 0.00 45 1004.0
20221205170031 41 26 10.0 16.0 0.00 0.00 0.00 46 1004.0
20221205165540 40 13 12.0 16.0 0.00 0.00 0.00 45 1004.1
20221205165051 40 16 12.0 16.0 0.00 0.00 0.00 46 1004.2
20221205164531 40 26 10.0 16.0 0.00 0.00 0.00 46 1004.1
20221205164040 40 5 13.0 16.0 0.00 0.00 0.00 46 1004.0
20221205163548 40 14 13.0 18.0 0.00 0.00 0.00 46 1004.0
20221205163028 39 13 13.0 18.0 0.00 0.00 0.00 47 1003.9
20221205162537 39 360 11.0 18.0 0.00 0.00 0.00 47 1003.8
20221205162047 39 11 13.0 18.0 0.00 0.00 0.00 47 1003.8
20221205161527 39 19 13.0 18.0 0.00 0.00 0.00 47 1003.8
20221205161036 39 34 13.0 18.0 0.00 0.00 0.00 47 1003.6
20221205160545 39 26 13.0 17.0 0.00 0.00 0.00 47 1003.4
20221205160026 38 57 11.0 16.0 0.00 0.00 0.00 48 1003.5
20221205155536 38 14 11.0 21.0 0.00 0.00 0.00 48 1003.4
20221205155025 39 12 11.0 21.0 0.00 0.00 0.00 47 1003.4
20221205154525 39 37 11.0 16.0 0.00 0.00 0.00 47 1003.3
20221205154030 39 355 10.0 15.0 0.00 0.00 0.00 48 1003.2
20221205153541 38 32 10.0 14.0 0.00 0.00 0.00 49 1003.2
20221205153049 38 340 10.0 14.0 0.00 0.00 0.00 49 1003.0
20221205152530 37 5 6.0 10.0 0.00 0.00 0.00 51 1003.0
20221205152038 36 333 6.0 10.0 0.00 0.00 0.00 52 1003.1
20221205151549 36 341 6.0 10.0 0.00 0.00 0.00 55 1003.0
20221205151050 35 324 4.0 8.0 0.00 0.00 0.00 57 1003.0
20221205150530 34 325 5.0 8.0 0.00 0.00 0.00 58 1002.8
20221205150039 33 331 4.0 8.0 0.00 0.00 0.00 59 1002.7
20221205145549 33 298 4.0 8.0 0.00 0.00 0.00 59 1002.6
20221205145030 32 302 3.0 8.0 0.00 0.00 0.00 60 1002.4
20221205144539 32 309 3.0 9.0 0.00 0.00 0.00 60 1002.4
20221205144031 32 309 6.0 9.0 0.00 0.00 0.00 60 1002.5
20221205143528 31 294 4.0 8.0 0.00 0.00 0.00 60 1002.6
20221205143037 31 292 4.0 5.0 0.00 0.00 0.00 60 1002.6
20221205142527 31 291 3.0 5.0 0.00 0.00 0.00 60 1002.6
20221205142028 31 292 3.0 5.0 0.00 0.00 0.00 60 1002.6
20221205141538 31 292 3.0 5.0 0.00 0.00 0.00 60 1002.4
20221205141028 31 291 4.0 5.0 0.00 0.00 0.00 60 1002.3
20221205140526 31 291 2.0 4.0 0.00 0.00 0.00 60 1002.2
20221205140033 31 294 2.0 5.0 0.00 0.00 0.00 60 1002.3
20221205135543 31 294 2.0 5.0 0.00 0.00 0.00 60 1002.0
20221205135033 31 295 2.0 4.0 0.00 0.00 0.00 59 1001.7
20221205134533 31 295 1.0 4.0 0.00 0.00 0.00 59 1001.6
20221205134043 31 295 2.0 4.0 0.00 0.00 0.00 59 1001.8
20221205133533 32 295 2.0 5.0 0.00 0.00 0.00 59 1001.7
20221205133032 32 295 2.0 6.0 0.00 0.00 0.00 59 1001.8
20221205132542 32 296 3.0 8.0 0.00 0.00 0.00 58 1001.7
20221205132032 32 300 4.0 9.0 0.00 0.00 0.00 58 1001.5
20221205131541 32 296 5.0 9.0 0.00 0.00 0.00 58 1001.5
20221205131043 32 285 3.0 8.0 0.00 0.00 0.00 58 1001.4
20221205130532 32 286 5.0 8.0 0.00 0.00 0.00 58 1001.2
20221205130040 32 295 4.0 8.0 0.00 0.00 0.00 57 1001.1
20221205125542 33 296 4.0 8.0 0.00 0.00 0.00 56 1001.3
20221205125031 33 297 4.0 9.0 0.00 0.00 0.00 56 1001.3
20221205124541 33 296 3.0 9.0 0.00 0.00 0.00 55 1001.2
20221205124049 33 300 5.0 9.0 0.00 0.00 0.00 55 1001.1
20221205123531 33 304 5.0 8.0 0.00 0.00 0.00 56 1001.1
20221205123033 33 297 4.0 8.0 0.00 0.00 0.00 56 1001.2
20221205122543 33 292 4.0 7.0 0.00 0.00 0.00 56 1001.2
20221205122043 34 289 4.0 8.0 0.00 0.00 0.00 55 1001.3
20221205121532 34 290 5.0 8.0 0.00 0.00 0.00 55 1001.2
20221205121042 34 293 5.0 7.0 0.00 0.00 0.00 55 1001.3
20221205120542 34 290 7.0 8.0 0.00 0.00 0.00 55 1001.1
20221205120033 33 295 8.0 11.0 0.00 0.00 0.00 69 1001.0
20221205115541 33 286 9.0 11.0 0.00 0.00 0.00 69 1001.0
20221205115049 33 286 10.0 11.0 0.00 0.00 0.00 69 1001.1
20221205114529 33 287 9.0 12.0 0.00 0.00 0.00 69 1001.0
20221205114039 33 288 10.0 12.0 0.00 0.00 0.00 69 1001.1
20221205113548 33 276 8.0 12.0 0.00 0.00 0.00 69 1001.0
20221205113028 33 281 9.0 11.0 0.00 0.00 0.00 69 1001.1
20221205112539 32 270 8.0 10.0 0.00 0.00 0.00 69 1001.0
20221205112049 32 273 7.0 12.0 0.00 0.00 0.00 69 1000.8
20221205111530 31 285 4.0 8.0 0.00 0.00 0.00 56 1000.9
20221205111039 31 287 4.0 8.0 0.00 0.00 0.00 56 1000.8
20221205110549 31 288 3.0 10.0 0.00 0.00 0.00 56 1000.7
20221205110029 31 290 6.0 10.0 0.00 0.00 0.00 55 1000.6
20221205105535 31 280 6.0 9.0 0.00 0.00 0.00 55 1000.7
20221205105044 31 279 5.0 8.0 0.00 0.00 0.00 56 1000.8
20221205104524 30 276 4.0 10.0 0.00 0.00 0.00 56 1001.0
20221205104035 30 292 5.0 11.0 0.00 0.00 0.00 55 1000.9
20221205103524 30 289 5.0 11.0 0.00 0.00 0.00 55 1000.9
20221205103026 30 272 10.0 13.0 0.00 0.00 0.00 69 1000.8
20221205102528 30 275 9.0 13.0 0.00 0.00 0.00 69 1000.8
20221205102038 30 277 4.0 7.0 0.00 0.00 0.00 54 1000.7
20221205101528 30 281 3.0 7.0 0.00 0.00 0.00 54 1000.7
20221205101028 30 257 3.0 8.0 0.00 0.00 0.00 53 1000.8
20221205100536 31 252 3.0 5.0 0.00 0.00 0.00 53 1000.7
20221205100025 31 252 3.0 7.0 0.00 0.00 0.00 53 1000.9
20221205095525 31 252 4.0 7.0 0.00 0.00 0.00 53 1000.9
20221205095034 31 252 3.0 7.0 0.00 0.00 0.00 53 1000.9
20221205094524 30 245 6.0 7.0 0.00 0.00 0.00 69 1001.0
20221205094035 30 259 5.0 9.0 0.00 0.00 0.00 69 1001.1
20221205093534 31 276 6.0 10.0 0.00 0.00 0.00 69 1001.2
20221205093043 31 256 8.0 10.0 0.00 0.00 0.00 69 1001.2
20221205092534 33 250 3.0 5.0 0.00 0.00 0.00 51 1001.3
20221205092030 33 250 2.0 5.0 0.00 0.00 0.00 51 1001.6
20221205091541 33 229 2.0 4.0 0.00 0.00 0.00 50 1001.7
20221205091030 34 229 1.0 3.0 0.00 0.00 0.00 50 1001.5
20221205090531 34 229 1.0 3.0 0.00 0.00 0.00 49 1001.7
20221205090040 34 229 1.0 4.0 0.00 0.00 0.00 50 1001.5
20221205085530 33 236 6.0 9.0 0.00 0.00 0.00 69 1001.3
20221205085039 34 242 6.0 9.0 0.00 0.00 0.00 69 1001.4
20221205084539 35 240 7.0 8.0 0.00 0.00 0.00 69 1001.5
20221205084027 35 265 4.0 10.0 0.00 0.00 0.00 69 1001.4
20221205083537 35 228 6.0 10.0 0.00 0.00 0.00 69 1001.4
20221205083036 35 224 7.0 10.0 0.00 0.00 0.00 69 1001.2
20221205082543 35 223 8.0 11.0 0.00 0.00 0.00 69 1001.2
20221205082033 35 224 9.0 11.0 0.00 0.00 0.00 69 1001.3
20221205081543 36 230 9.0 11.0 0.00 0.00 0.00 69 1001.2
20221205081025 36 220 8.0 10.0 0.00 0.00 0.00 69 1001.4
20221205080535 36 210 9.0 10.0 0.00 0.00 0.00 70 1001.4
20221205080044 36 213 9.0 12.0 0.00 0.00 0.00 70 1001.4
20221205075525 36 205 10.0 11.0 0.00 0.00 0.00 69 1001.4
20221205075035 36 209 10.0 11.0 0.00 0.00 0.00 70 1001.6
20221205074541 36 213 8.0 11.0 0.00 0.00 0.00 69 1001.8
20221205074050 36 228 8.0 11.0 0.00 0.00 0.00 69 1001.9
20221205073529 36 221 9.0 11.0 0.00 0.00 0.00 69 1001.9
20221205073039 36 208 9.0 11.0 0.00 0.00 0.00 69 1002.1
20221205072546 36 206 6.0 9.0 0.00 0.00 0.00 69 1002.2
20221205072043 36 216 6.0 8.0 0.00 0.00 0.00 70 1002.3
20221205071533 36 221 6.0 10.0 0.00 0.00 0.00 69 1002.4
20221205071043 37 224 7.0 12.0 0.00 0.00 0.00 69 1002.4
20221205070552 37 205 9.0 14.0 0.00 0.00 0.00 70 1002.3
20221205070029 37 211 10.0 15.0 0.00 0.00 0.00 70 1002.4
20221205065537 38 211 10.0 14.0 0.00 0.00 0.00 70 1002.6
20221205065046 38 212 9.0 12.0 0.00 0.00 0.00 70 1002.6
20221205064536 38 204 8.0 14.0 0.00 0.00 0.00 70 1002.6
20221205064026 38 219 9.0 14.0 0.00 0.00 0.00 70 1002.7
20221205063534 38 219 11.0 14.0 0.00 0.00 0.00 70 1002.8
20221205063044 38 213 11.0 13.0 0.00 0.00 0.00 70 1003.1
20221205062524 38 234 11.0 13.0 0.00 0.00 0.00 70 1003.1
20221205062034 37 218 11.0 14.0 0.00 0.00 0.00 70 1003.2
20221205061537 37 218 9.0 12.0 0.00 0.00 0.00 70 1003.4
20221205061037 37 216 10.0 12.0 0.00 0.00 0.00 70 1003.5
20221205060526 37 219 9.0 11.0 0.00 0.00 0.00 69 1003.6
20221205060034 37 214 8.0 11.0 0.00 0.00 0.00 69 1003.6
20221205055535 37 221 9.0 11.0 0.00 0.00 0.00 69 1003.6
20221205055025 37 209 8.0 11.0 0.00 0.00 0.00 69 1003.6
20221205054535 37 213 9.0 10.0 0.00 0.00 0.00 70 1003.8
20221205054045 37 205 7.0 9.0 0.00 0.00 0.00 70 1004.0
20221205053526 37 220 6.0 9.0 0.00 0.00 0.00 70 1004.0
20221205053037 37 228 7.0 10.0 0.00 0.00 0.00 69 1004.1
20221205052547 37 218 7.0 10.0 0.00 0.00 0.00 69 1004.2
20221205052027 37 211 7.0 10.0 0.00 0.00 0.00 69 1004.2
20221205051536 36 200 8.0 10.0 0.00 0.00 0.00 69 1004.3
20221205051046 35 191 9.0 10.0 0.00 0.00 0.00 69 1004.3
20221205050526 34 204 7.0 9.0 0.00 0.00 0.00 69 1004.2
20221205050034 34 198 6.0 8.0 0.00 0.00 0.00 69 1004.2
20221205045545 34 211 5.0 8.0 0.00 0.00 0.00 69 1004.3
20221205045024 35 200 7.0 9.0 0.00 0.00 0.00 69 1004.3
20221205044531 36 194 7.0 12.0 0.00 0.00 0.00 69 1004.4
20221205044037 36 191 9.0 12.0 0.00 0.00 0.00 69 1004.5
20221205043547 37 196 8.0 11.0 0.00 0.00 0.00 69 1004.5
20221205043027 37 198 9.0 12.0 0.00 0.00 0.00 69 1004.6
20221205042536 36 203 9.0 11.0 0.00 0.00 0.00 69 1004.9
20221205042045 35 184 8.0 13.0 0.00 0.00 0.00 69 1004.9
20221205041526 35 192 11.0 13.0 0.00 0.00 0.00 69 1004.7
20221205041037 36 188 8.0 11.0 0.00 0.00 0.00 70 1004.7
20221205040527 36 196 8.0 11.0 0.00 0.00 0.00 70 1004.9
20221205040028 36 192 9.0 11.0 0.00 0.00 0.00 69 1005.0
20221205035538 37 186 10.0 13.0 0.00 0.00 0.00 70 1005.0
20221205035027 37 188 11.0 14.0 0.00 0.00 0.00 70 1005.1
20221205034538 37 188 12.0 14.0 0.00 0.00 0.00 69 1005.3
20221205034038 36 202 10.0 13.0 0.00 0.00 0.00 69 1005.3
20221205033528 35 178 11.0 13.0 0.00 0.00 0.00 69 1005.5
20221205033039 35 186 11.0 12.0 0.00 0.00 0.00 69 1005.3
20221205032538 36 190 9.0 11.0 0.00 0.00 0.00 69 1005.4
20221205032027 36 197 9.0 11.0 0.00 0.00 0.00 69 1005.4
20221205031535 37 196 8.0 11.0 0.00 0.00 0.00 70 1005.3
20221205031045 37 196 9.0 11.0 0.00 0.00 0.00 69 1005.5
20221205030526 37 192 10.0 11.0 0.00 0.00 0.00 69 1005.5
20221205030032 37 188 9.0 12.0 0.00 0.00 0.00 70 1005.6
20221205025542 37 198 10.0 12.0 0.00 0.00 0.00 69 1005.5
20221205025041 36 181 10.0 12.0 0.00 0.00 0.00 69 1005.8
20221205024530 36 193 9.0 11.0 0.00 0.00 0.00 69 1006.0
20221205024040 36 193 9.0 13.0 0.00 0.00 0.00 69 1005.9
20221205023549 36 183 11.0 14.0 0.00 0.00 0.00 70 1005.9
20221205023028 36 170 13.0 14.0 0.00 0.00 0.00 70 1005.8
20221205022537 36 178 12.0 15.0 0.00 0.00 0.00 70 1005.9
20221205022046 37 181 13.0 15.0 0.00 0.00 0.00 69 1006.1
20221205021527 37 181 14.0 15.0 0.00 0.00 0.00 69 1006.1
20221205021037 37 182 13.0 14.0 0.00 0.00 0.00 69 1006.2
20221205020547 36 187 12.0 14.0 0.00 0.00 0.00 69 1006.3
20221205020029 36 190 10.0 11.0 0.00 0.00 0.00 70 1006.5
20221205015538 36 192 10.0 11.0 0.00 0.00 0.00 70 1006.7
20221205015048 36 191 8.0 10.0 0.00 0.00 0.00 70 1006.6
20221205014530 37 183 9.0 10.0 0.00 0.00 0.00 69 1006.6
20221205014041 37 182 10.0 10.0 0.00 0.00 0.00 70 1006.7
20221205013530 36 178 10.0 11.0 0.00 0.00 0.00 70 1006.8
20221205013030 36 184 9.0 11.0 0.00 0.00 0.00 70 1006.8
20221205012537 37 181 10.0 11.0 0.00 0.00 0.00 69 1006.8
20221205012026 38 178 10.0 11.0 0.00 0.00 0.00 70 1006.9
20221205011526 38 180 10.0 12.0 0.00 0.00 0.00 70 1006.9
20221205011036 38 182 11.0 13.0 0.00 0.00 0.00 70 1006.9
20221205010543 38 182 12.0 13.0 0.00 0.00 0.00 70 1006.9
20221205010033 37 186 12.0 12.0 0.00 0.00 0.00 70 1007.0
20221205005532 37 190 10.0 11.0 0.00 0.00 0.00 70 1007.0
20221205005041 37 192 8.0 9.0 0.00 0.00 0.00 69 1007.3
20221205004532 37 192 8.0 9.0 0.00 0.00 0.00 69 1007.3
20221205004032 37 192 8.0 10.0 0.00 0.00 0.00 70 1007.3
20221205003542 37 190 9.0 10.0 0.00 0.00 0.00 70 1007.3
20221205003032 38 187 10.0 11.0 0.00 0.00 0.00 70 1007.2
20221205002541 38 189 11.0 11.0 0.00 0.00 0.00 70 1007.3
20221205002043 38 192 10.0 10.0 0.00 0.00 0.00 70 1007.5
20221205001533 39 189 10.0 10.0 0.00 0.00 0.00 70 1007.6
20221205001042 40 190 9.0 10.0 0.00 0.00 0.00 70 1007.7
20221205000542 42 191 9.0 9.0 0.00 0.00 0.00 70 1007.8
20221205000031 43 186 8.0 9.0 0.00 0.00 0.00 70 1007.8
20221204235542 43 189 7.0 8.0 0.00 0.00 0.00 70 1007.8
20221204235048 44 184 8.0 9.0 0.00 0.00 0.00 70 1007.9
20221204234527 44 181 8.0 9.0 0.00 0.00 0.00 70 1008.0
20221204234037 43 177 8.0 9.0 0.00 0.00 0.00 70 1008.1
20221204233547 43 182 7.0 8.0 0.00 0.00 0.00 70 1008.1
20221204233025 44 181 8.0 9.0 0.00 0.00 0.00 70 1008.2
20221204232534 44 176 8.0 9.0 0.00 0.00 0.00 70 1008.2
20221204232044 45 181 9.0 9.0 0.00 0.00 0.00 70 1008.4
20221204231553 45 185 8.0 9.0 0.00 0.00 0.00 70 1008.5
20221204231034 46 188 7.0 8.0 0.00 0.00 0.00 70 1008.6
20221204230525 46 182 7.0 8.0 0.00 0.00 0.00 70 1008.5
20221204230025 46 182 7.0 8.0 0.00 0.00 0.00 70 1008.5
20221204225534 46 192 7.0 8.0 0.00 0.00 0.00 71 1008.6
20221204225043 47 194 7.0 8.0 0.00 0.00 0.00 71 1008.6
20221204224553 49 194 7.0 8.0 0.00 0.00 0.00 71 1008.7
20221204224034 49 196 5.0 7.0 0.00 0.00 0.00 71 1008.7
20221204223524 50 203 5.0 7.0 0.00 0.00 0.00 71 1008.7
20221204223035 50 209 6.0 7.0 0.00 0.00 0.00 71 1008.7
20221204222536 51 201 6.0 8.0 0.00 0.00 0.00 71 1008.8
20221204222027 51 195 6.0 9.0 0.00 0.00 0.00 71 1008.9
20221204221535 51 200 7.0 9.0 0.00 0.00 0.00 71 1009.0
20221204221030 52 207 6.0 9.0 0.00 0.00 0.00 71 1009.1
20221204220541 52 212 8.0 9.0 0.00 0.00 0.00 71 1009.2
20221204220030 52 212 7.0 9.0 0.00 0.00 0.00 71 1009.3